,,,PA_Meas_PMT16A,,PR_Meas_QMR101_102,,RH_Meas_QMH101,,SR_Meas_QMS101,,TA_Meas_QMH101,,GenWind,,GenWind,
date,time,status,PA,status,PR,status,RH,status,SR,status,TA,status,DirAvg,status,SpdAvg,
2010-04-03, 00:00:04,VALID,1001.08,VALID,0,VALID,92.0285,VALID,0,VALID,24.0525,VALID,22,VALID,0,
2010-04-03, 00:01:04,VALID,1001.07,VALID,0,VALID,92.0056,VALID,0,VALID,24.0525,VALID,22,VALID,0,
2010-04-03, 00:02:04,VALID,1001.07,VALID,0,VALID,92.0743,VALID,0,VALID,24.0525,VALID,22,VALID,0,
2010-04-03, 00:03:04,VALID,1001.01,VALID,0,VALID,92.0895,VALID,0,VALID,24.0525,VALID,22,VALID,0,
2010-04-03, 00:04:04,VALID,1001,VALID,0,VALID,92.0285,VALID,0,VALID,24.0329,VALID,22,VALID,0,
2010-04-03, 00:05:04,VALID,1001.01,VALID,0,VALID,92.0056,VALID,0,VALID,24.0134,VALID,22,VALID,0,
2010-04-03, 00:06:04,VALID,1000.99,VALID,0,VALID,92.0743,VALID,0,VALID,24.0134,VALID,22,VALID,0,
2010-04-03, 00:07:04,VALID,1000.93,VALID,0,VALID,92.1124,VALID,0,VALID,24.0134,VALID,22,VALID,0,
2010-04-03, 00:08:04,VALID,1000.92,VALID,0,VALID,92.1124,VALID,0,VALID,24.0134,VALID,22,VALID,0,
2010-04-03, 00:09:04,VALID,1000.88,VALID,0,VALID,92.1048,VALID,0,VALID,23.9531,VALID,22,VALID,0,
2010-04-03, 00:10:04,VALID,1000.87,VALID,0,VALID,92.0666,VALID,0,VALID,23.9744,VALID,22,VALID,0,
2010-04-03, 00:11:04,VALID,1000.87,VALID,0,VALID,92.1277,VALID,0,VALID,23.9744,VALID,22,VALID,0,
2010-04-03, 00:12:04,VALID,1000.85,VALID,0,VALID,92.1277,VALID,0,VALID,23.9744,VALID,22,VALID,0,
2010-04-03, 00:13:04,VALID,1000.85,VALID,0,VALID,92.1887,VALID,0,VALID,23.9939,VALID,22,VALID,0,
2010-04-03, 00:14:04,VALID,1000.86,VALID,0,VALID,92.2268,VALID,0,VALID,24.0134,VALID,22,VALID,0,
2010-04-03, 00:15:04,VALID,1000.83,VALID,0,VALID,92.2879,VALID,0,VALID,24.0348,VALID,22,VALID,0,
2010-04-03, 00:16:04,VALID,1000.85,VALID,0,VALID,92.3718,VALID,0,VALID,24.0329,VALID,22,VALID,0,
2010-04-03, 00:17:04,VALID,1000.83,VALID,0,VALID,92.3718,VALID,0,VALID,24.0525,VALID,22,VALID,0,
2010-04-03, 00:18:04,VALID,1000.85,VALID,0,VALID,92.3642,VALID,0,VALID,24.072,VALID,22,VALID,0,
2010-04-03, 00:19:04,VALID,1000.81,VALID,0,VALID,92.3947,VALID,0,VALID,24.072,VALID,22,VALID,0,
2010-04-03, 00:20:04,VALID,1000.84,VALID,0,VALID,92.5015,VALID,0,VALID,24.0915,VALID,99,VALID,0.417969,
2010-04-03, 00:21:04,VALID,1000.82,VALID,0,VALID,92.2955,VALID,0,VALID,24.0915,VALID,99,VALID,0.683203,
2010-04-03, 00:22:04,VALID,1000.81,VALID,0,VALID,92.0666,VALID,0,VALID,24.0134,VALID,110,VALID,0.785547,
2010-04-03, 00:23:04,VALID,1000.77,VALID,0,VALID,92.41,VALID,0,VALID,24.0116,VALID,112,VALID,0.794531,
2010-04-03, 00:24:04,VALID,1000.78,VALID,0,VALID,92.4557,VALID,0,VALID,24.072,VALID,112,VALID,0.517969,
2010-04-03, 00:25:04,VALID,1000.77,VALID,0,VALID,92.3947,VALID,0,VALID,24.0701,VALID,112,VALID,0.408984,
2010-04-03, 00:26:04,VALID,1000.76,VALID,0,VALID,92.2421,VALID,0,VALID,24.0915,VALID,112,VALID,0.491016,
2010-04-03, 00:27:04,VALID,1000.75,VALID,0,VALID,92.204,VALID,0,VALID,24.0915,VALID,93,VALID,0.671484,
2010-04-03, 00:28:04,VALID,1000.74,VALID,0,VALID,91.9293,VALID,0,VALID,24.0525,VALID,93,VALID,0.708984,
2010-04-03, 00:29:04,VALID,1000.72,VALID,0,VALID,91.8072,VALID,0,VALID,23.9939,VALID,83,VALID,0.751172,
2010-04-03, 00:30:04,VALID,1000.72,VALID,0,VALID,91.8835,VALID,0,VALID,23.9549,VALID,83,VALID,0.838672,
2010-04-03, 00:31:04,VALID,1000.67,VALID,0,VALID,91.8988,VALID,0,VALID,23.914,VALID,82,VALID,0.766406,
2010-04-03, 00:32:04,VALID,1000.67,VALID,0,VALID,92.0209,VALID,0,VALID,23.9159,VALID,82,VALID,0.716016,
2010-04-03, 00:33:04,VALID,1000.66,VALID,0,VALID,92.0056,VALID,0,VALID,23.8963,VALID,73,VALID,0.705859,
2010-04-03, 00:34:04,VALID,1000.64,VALID,0,VALID,92.0285,VALID,0,VALID,23.8768,VALID,72,VALID,0.688281,
2010-04-03, 00:35:04,VALID,1000.63,VALID,0,VALID,92.0056,VALID,0,VALID,23.8768,VALID,72,VALID,0.603516,
2010-04-03, 00:36:04,VALID,1000.61,VALID,0,VALID,92.0437,VALID,0,VALID,23.8378,VALID,72,VALID,0.501953,
2010-04-03, 00:37:04,VALID,1000.57,VALID,0,VALID,92.0132,VALID,0,VALID,23.8183,VALID,72,VALID,0.396094,
2010-04-03, 00:38:04,VALID,1000.54,VALID,0,VALID,92.0971,VALID,0,VALID,23.7988,VALID,72,VALID,0.480859,
2010-04-03, 00:39:04,VALID,1000.55,VALID,0,VALID,92.2192,VALID,0,VALID,23.797,VALID,64,VALID,0.644922,
2010-04-03, 00:40:04,VALID,1000.58,VALID,0,VALID,92.2116,VALID,0,VALID,23.8183,VALID,62,VALID,0.552734,
2010-04-03, 00:41:04,VALID,1000.57,VALID,0,VALID,92.265,VALID,0,VALID,23.8183,VALID,61,VALID,0.691016,
2010-04-03, 00:42:04,VALID,1000.59,VALID,0,VALID,92.3413,VALID,0,VALID,23.8183,VALID,61,VALID,0.661328,
2010-04-03, 00:43:04,VALID,1000.56,VALID,0,VALID,92.326,VALID,0,VALID,23.8165,VALID,61,VALID,0.626562,
2010-04-03, 00:44:04,VALID,1000.55,VALID,0,VALID,92.2497,VALID,0,VALID,23.8183,VALID,61,VALID,0.505469,
2010-04-03, 00:45:04,VALID,1000.56,VALID,0,VALID,92.1353,VALID,0,VALID,23.7988,VALID,61,VALID,0.313672,
2010-04-03, 00:46:04,VALID,1000.55,VALID,0,VALID,92.0895,VALID,0,VALID,23.7597,VALID,61,VALID,0.121875,
2010-04-03, 00:47:04,VALID,1000.55,VALID,0,VALID,92.0819,VALID,0,VALID,23.7012,VALID,61,VALID,0,
2010-04-03, 00:48:04,VALID,1000.53,VALID,0,VALID,92.2574,VALID,0,VALID,23.7012,VALID,61,VALID,0,
2010-04-03, 00:49:04,VALID,1000.54,VALID,0,VALID,92.4023,VALID,0,VALID,23.7402,VALID,61,VALID,0,
2010-04-03, 00:50:04,VALID,1000.52,VALID,0,VALID,92.4557,VALID,0,VALID,23.7402,VALID,61,VALID,0,
2010-04-03, 00:51:04,VALID,1000.49,VALID,0,VALID,92.4786,VALID,0,VALID,23.7597,VALID,61,VALID,0,
2010-04-03, 00:52:04,VALID,1000.44,VALID,0,VALID,92.5397,VALID,0,VALID,23.7988,VALID,61,VALID,0,
2010-04-03, 00:53:04,VALID,1000.44,VALID,0,VALID,92.5473,VALID,0,VALID,23.8378,VALID,61,VALID,0,
2010-04-03, 00:54:04,VALID,1000.4,VALID,0,VALID,92.3718,VALID,0,VALID,23.7988,VALID,61,VALID,0,
2010-04-03, 00:55:04,VALID,1000.37,VALID,0,VALID,92.471,VALID,0,VALID,23.7988,VALID,61,VALID,0,
2010-04-03, 00:56:04,VALID,1000.37,VALID,0,VALID,92.5168,VALID,0,VALID,23.8183,VALID,61,VALID,0,
2010-04-03, 00:57:04,VALID,1000.36,VALID,0,VALID,92.5397,VALID,0,VALID,23.8183,VALID,61,VALID,0,
2010-04-03, 00:58:04,VALID,1000.36,VALID,0,VALID,92.4863,VALID,0,VALID,23.7775,VALID,61,VALID,0,
2010-04-03, 00:59:04,VALID,1000.33,VALID,0,VALID,92.5397,VALID,0,VALID,23.7988,VALID,61,VALID,0,
2010-04-03, 01:00:04,VALID,1000.33,VALID,0,VALID,92.532,VALID,0,VALID,23.7775,VALID,61,VALID,0,
2010-04-03, 01:01:04,VALID,1000.34,VALID,0,VALID,92.5473,VALID,0,VALID,23.7988,VALID,60,VALID,0,
2010-04-03, 01:02:04,VALID,1000.31,VALID,0,VALID,92.5778,VALID,0,VALID,23.7988,VALID,60,VALID,0,
2010-04-03, 01:03:04,VALID,1000.33,VALID,0,VALID,92.532,VALID,0,VALID,23.7793,VALID,60,VALID,0,
2010-04-03, 01:04:04,VALID,1000.32,VALID,0,VALID,92.5854,VALID,0,VALID,23.7988,VALID,60,VALID,0,
2010-04-03, 01:05:04,VALID,1000.34,VALID,0,VALID,92.5778,VALID,0,VALID,23.7793,VALID,60,VALID,0,
2010-04-03, 01:06:04,VALID,1000.33,VALID,0,VALID,92.5702,VALID,0,VALID,23.7597,VALID,60,VALID,0,
2010-04-03, 01:07:04,VALID,1000.33,VALID,0,VALID,92.5397,VALID,0,VALID,23.7402,VALID,60,VALID,0,
2010-04-03, 01:08:04,VALID,1000.3,VALID,0,VALID,92.5931,VALID,0,VALID,23.7189,VALID,60,VALID,0,
2010-04-03, 01:09:04,VALID,1000.28,VALID,0,VALID,92.6388,VALID,0,VALID,23.7012,VALID,60,VALID,0.600781,
2010-04-03, 01:10:04,VALID,1000.25,VALID,0,VALID,92.7838,VALID,0,VALID,23.7189,VALID,60,VALID,0.522656,
2010-04-03, 01:11:04,VALID,1000.22,VALID,0,VALID,92.7838,VALID,0,VALID,23.7597,VALID,59,VALID,0.593359,
2010-04-03, 01:12:04,VALID,1000.23,VALID,0,VALID,92.8143,VALID,0,VALID,23.7793,VALID,44,VALID,0.76875,
2010-04-03, 01:13:04,VALID,1000.18,VALID,0,VALID,92.677,VALID,0,VALID,23.7579,VALID,44,VALID,0.859766,
2010-04-03, 01:14:04,VALID,1000.16,VALID,0,VALID,92.532,VALID,0,VALID,23.7402,VALID,44,VALID,0.906641,
2010-04-03, 01:15:04,VALID,1000.18,VALID,0,VALID,92.5015,VALID,0,VALID,23.6622,VALID,44,VALID,0.777734,
2010-04-03, 01:16:04,VALID,1000.13,VALID,0,VALID,92.5397,VALID,0,VALID,23.6427,VALID,44,VALID,0.839453,
2010-04-03, 01:17:04,VALID,1000.12,VALID,0,VALID,92.4481,VALID,0,VALID,23.5628,VALID,34,VALID,0.784375,
2010-04-03, 01:18:04,VALID,1000.1,VALID,0,VALID,92.4557,VALID,0,VALID,23.5451,VALID,33,VALID,0.837891,
2010-04-03, 01:19:04,VALID,1000.13,VALID,0,VALID,92.5626,VALID,0,VALID,23.5256,VALID,33,VALID,0.789063,
2010-04-03, 01:20:04,VALID,1000.11,VALID,0,VALID,92.6617,VALID,0,VALID,23.5256,VALID,33,VALID,0.823047,
2010-04-03, 01:21:04,VALID,1000.12,VALID,0,VALID,92.7457,VALID,0,VALID,23.5043,VALID,33,VALID,0.823438,
2010-04-03, 01:22:04,VALID,1000.1,VALID,0,VALID,92.7914,VALID,0,VALID,23.5238,VALID,33,VALID,0.755078,
2010-04-03, 01:23:04,VALID,1000.11,VALID,0,VALID,92.8372,VALID,0,VALID,23.5433,VALID,33,VALID,0.693359,
2010-04-03, 01:24:04,VALID,1000.07,VALID,0,VALID,92.7991,VALID,0,VALID,23.5238,VALID,33,VALID,0.621094,
2010-04-03, 01:25:04,VALID,1000.05,VALID,0,VALID,92.7914,VALID,0,VALID,23.5451,VALID,33,VALID,0.523828,
2010-04-03, 01:26:04,VALID,1000,VALID,0,VALID,92.7838,VALID,0,VALID,23.5043,VALID,33,VALID,0.278516,
2010-04-03, 01:27:04,VALID,999.983,VALID,0,VALID,92.8143,VALID,0,VALID,23.5238,VALID,33,VALID,0.234375,
2010-04-03, 01:28:04,VALID,999.999,VALID,0,VALID,92.7685,VALID,0,VALID,23.5451,VALID,33,VALID,0.00585938,
2010-04-03, 01:29:04,VALID,999.967,VALID,0,VALID,92.7533,VALID,0,VALID,23.5043,VALID,33,VALID,0,
2010-04-03, 01:30:04,VALID,999.974,VALID,0,VALID,92.8601,VALID,0,VALID,23.5256,VALID,33,VALID,0,
2010-04-03, 01:31:04,VALID,999.943,VALID,0,VALID,92.8525,VALID,0,VALID,23.5451,VALID,33,VALID,0,
2010-04-03, 01:32:04,VALID,999.958,VALID,0,VALID,92.7762,VALID,0,VALID,23.5238,VALID,33,VALID,0,
2010-04-03, 01:33:04,VALID,999.996,VALID,0,VALID,92.7228,VALID,0,VALID,23.5043,VALID,33,VALID,0,
2010-04-03, 01:34:04,VALID,999.968,VALID,0,VALID,92.6923,VALID,0,VALID,23.4848,VALID,33,VALID,0,
2010-04-03, 01:35:04,VALID,999.982,VALID,0,VALID,92.6617,VALID,0,VALID,23.4671,VALID,33,VALID,0,
2010-04-03, 01:36:04,VALID,999.952,VALID,0,VALID,92.5854,VALID,0,VALID,23.4067,VALID,33,VALID,0,
2010-04-03, 01:37:04,VALID,999.966,VALID,0,VALID,92.5626,VALID,0,VALID,23.3872,VALID,33,VALID,0,
2010-04-03, 01:38:04,VALID,999.942,VALID,0,VALID,92.7685,VALID,0,VALID,23.428,VALID,33,VALID,0,
2010-04-03, 01:39:04,VALID,999.928,VALID,0,VALID,92.944,VALID,0,VALID,23.4458,VALID,33,VALID,0,
2010-04-03, 01:40:04,VALID,999.921,VALID,0,VALID,92.9974,VALID,0,VALID,23.5043,VALID,35,VALID,0,
2010-04-03, 01:41:04,VALID,999.934,VALID,0,VALID,92.9822,VALID,0,VALID,23.5646,VALID,71,VALID,0,
2010-04-03, 01:42:04,VALID,999.917,VALID,0,VALID,93.0127,VALID,0,VALID,23.5823,VALID,80,VALID,0.710547,
2010-04-03, 01:43:04,VALID,999.901,VALID,0,VALID,92.944,VALID,0,VALID,23.5823,VALID,84,VALID,0.734766,
2010-04-03, 01:44:04,VALID,999.896,VALID,0,VALID,93.0127,VALID,0,VALID,23.6019,VALID,87,VALID,0.830469,
2010-04-03, 01:45:04,VALID,999.9,VALID,0,VALID,92.9822,VALID,0,VALID,23.6232,VALID,90,VALID,0.932031,
2010-04-03, 01:46:04,VALID,999.88,VALID,0,VALID,92.9135,VALID,0,VALID,23.6036,VALID,98,VALID,0.988672,
2010-04-03, 01:47:04,VALID,999.915,VALID,0,VALID,92.8448,VALID,0,VALID,23.5823,VALID,102,VALID,0.648828,
2010-04-03, 01:48:04,VALID,999.907,VALID,0,VALID,92.8372,VALID,0,VALID,23.5841,VALID,102,VALID,0.348828,
2010-04-03, 01:49:04,VALID,999.884,VALID,0,VALID,92.8677,VALID,0,VALID,23.5841,VALID,102,VALID,0.0503906,
2010-04-03, 01:50:04,VALID,999.913,VALID,0,VALID,92.8906,VALID,0,VALID,23.5841,VALID,102,VALID,0,
2010-04-03, 01:51:04,VALID,999.916,VALID,0,VALID,92.8754,VALID,0,VALID,23.5841,VALID,102,VALID,0,
2010-04-03, 01:52:04,VALID,999.955,VALID,0,VALID,92.883,VALID,0,VALID,23.5841,VALID,101,VALID,0,
2010-04-03, 01:53:04,VALID,999.908,VALID,0,VALID,92.8296,VALID,0,VALID,23.5646,VALID,90,VALID,0.176953,
2010-04-03, 01:54:04,VALID,999.91,VALID,0,VALID,92.8906,VALID,0,VALID,23.5433,VALID,90,VALID,0.505859,
2010-04-03, 01:55:04,VALID,999.905,VALID,0,VALID,92.9288,VALID,0,VALID,23.5628,VALID,90,VALID,0.5375,
2010-04-03, 01:56:04,VALID,999.897,VALID,0,VALID,92.9211,VALID,0,VALID,23.5628,VALID,90,VALID,0.520703,
2010-04-03, 01:57:04,VALID,999.859,VALID,0,VALID,92.9593,VALID,0,VALID,23.5823,VALID,42,VALID,0.693359,
2010-04-03, 01:58:04,VALID,999.868,VALID,0,VALID,92.8601,VALID,0,VALID,23.5628,VALID,32,VALID,0.964453,
2010-04-03, 01:59:04,VALID,999.853,VALID,0,VALID,92.7151,VALID,0,VALID,23.5256,VALID,32,VALID,0.924219,
2010-04-03, 02:00:04,VALID,999.825,VALID,0,VALID,92.7838,VALID,0,VALID,23.5256,VALID,32,VALID,0.905469,
2010-04-03, 02:01:04,VALID,999.797,VALID,0,VALID,92.7991,VALID,0,VALID,23.4653,VALID,29,VALID,0.826563,
2010-04-03, 02:02:04,VALID,999.792,VALID,0,VALID,92.7914,VALID,0,VALID,23.4475,VALID,24,VALID,0.815234,
2010-04-03, 02:03:04,VALID,999.763,VALID,0,VALID,92.8143,VALID,0,VALID,23.4263,VALID,21,VALID,0.880469,
2010-04-03, 02:04:04,VALID,999.755,VALID,0,VALID,92.9364,VALID,0,VALID,23.4263,VALID,21,VALID,0.8625,
2010-04-03, 02:05:04,VALID,999.754,VALID,0,VALID,92.9288,VALID,0,VALID,23.4458,VALID,21,VALID,0.807422,
2010-04-03, 02:06:04,VALID,999.739,VALID,0,VALID,92.9974,VALID,0,VALID,23.4458,VALID,21,VALID,0.600391,
2010-04-03, 02:07:04,VALID,999.748,VALID,0,VALID,92.9822,VALID,0,VALID,23.4866,VALID,21,VALID,0.665625,
2010-04-03, 02:08:04,VALID,999.784,VALID,0,VALID,92.9898,VALID,0,VALID,23.4653,VALID,21,VALID,0.844141,
2010-04-03, 02:09:04,VALID,999.77,VALID,0,VALID,92.9822,VALID,0,VALID,23.4866,VALID,21,VALID,0.769922,
2010-04-03, 02:10:04,VALID,999.781,VALID,0,VALID,92.8601,VALID,0,VALID,23.4653,VALID,21,VALID,0.747656,
2010-04-03, 02:11:04,VALID,999.791,VALID,0,VALID,92.9059,VALID,0,VALID,23.4263,VALID,21,VALID,0.746875,
2010-04-03, 02:12:04,VALID,999.809,VALID,0,VALID,92.9288,VALID,0,VALID,23.4458,VALID,22,VALID,0.729688,
2010-04-03, 02:13:04,VALID,999.824,VALID,0,VALID,92.883,VALID,0,VALID,23.4263,VALID,22,VALID,0.560547,
2010-04-03, 02:14:04,VALID,999.83,VALID,0,VALID,92.7914,VALID,0,VALID,23.4085,VALID,22,VALID,0.533984,
2010-04-03, 02:15:04,VALID,999.811,VALID,0,VALID,92.8525,VALID,0,VALID,23.389,VALID,23,VALID,0.567187,
2010-04-03, 02:16:04,VALID,999.829,VALID,0,VALID,92.8525,VALID,0,VALID,23.3695,VALID,23,VALID,0.49375,
2010-04-03, 02:17:04,VALID,999.813,VALID,0,VALID,92.8067,VALID,0,VALID,23.3287,VALID,23,VALID,0.364062,
2010-04-03, 02:18:04,VALID,999.833,VALID,0,VALID,92.7914,VALID,0,VALID,23.35,VALID,23,VALID,0.0996094,
2010-04-03, 02:19:04,VALID,999.816,VALID,0,VALID,92.8754,VALID,0,VALID,23.2897,VALID,23,VALID,0,
2010-04-03, 02:20:04,VALID,999.818,VALID,0,VALID,92.9745,VALID,0,VALID,23.311,VALID,23,VALID,0,
2010-04-03, 02:21:04,VALID,999.823,VALID,0,VALID,92.9898,VALID,0,VALID,23.35,VALID,23,VALID,0,
2010-04-03, 02:22:04,VALID,999.775,VALID,0,VALID,92.9898,VALID,0,VALID,23.35,VALID,23,VALID,0.44375,
2010-04-03, 02:23:04,VALID,999.779,VALID,0,VALID,92.9974,VALID,0,VALID,23.3482,VALID,23,VALID,0.471875,
2010-04-03, 02:24:04,VALID,999.775,VALID,0,VALID,92.9669,VALID,0.112286,VALID,23.3482,VALID,23,VALID,0.591016,
2010-04-03, 02:25:04,VALID,999.791,VALID,0,VALID,93.0661,VALID,0,VALID,23.3695,VALID,23,VALID,0.704687,
2010-04-03, 02:26:04,VALID,999.801,VALID,0,VALID,93.1729,VALID,0,VALID,23.4085,VALID,23,VALID,0.758594,
2010-04-03, 02:27:04,VALID,999.81,VALID,0,VALID,93.1958,VALID,0,VALID,23.4671,VALID,23,VALID,0.707812,
2010-04-03, 02:28:04,VALID,999.828,VALID,0,VALID,93.1271,VALID,0,VALID,23.4475,VALID,27,VALID,0.747266,
2010-04-03, 02:29:04,VALID,999.818,VALID,0,VALID,93.0432,VALID,0,VALID,23.4475,VALID,38,VALID,0.783203,
2010-04-03, 02:30:04,VALID,999.817,VALID,0,VALID,93.0203,VALID,0,VALID,23.4067,VALID,42,VALID,0.75,
2010-04-03, 02:31:04,VALID,999.766,VALID,0,VALID,93.089,VALID,0,VALID,23.428,VALID,43,VALID,0.669922,
2010-04-03, 02:32:04,VALID,999.787,VALID,0,VALID,93.1043,VALID,0,VALID,23.4671,VALID,43,VALID,0.584766,
2010-04-03, 02:33:04,VALID,999.784,VALID,0,VALID,93.089,VALID,0,VALID,23.4475,VALID,43,VALID,0.548437,
2010-04-03, 02:34:04,VALID,999.778,VALID,0,VALID,92.9898,VALID,0,VALID,23.4263,VALID,43,VALID,0.570703,
2010-04-03, 02:35:04,VALID,999.782,VALID,0,VALID,92.9745,VALID,0,VALID,23.3872,VALID,43,VALID,0.602344,
2010-04-03, 02:36:04,VALID,999.771,VALID,0,VALID,93.0661,VALID,0,VALID,23.4085,VALID,43,VALID,0.582422,
2010-04-03, 02:37:04,VALID,999.766,VALID,0,VALID,93.0508,VALID,0,VALID,23.428,VALID,43,VALID,0.521875,
2010-04-03, 02:38:04,VALID,999.744,VALID,0,VALID,93.0585,VALID,0,VALID,23.3872,VALID,43,VALID,0.489453,
2010-04-03, 02:39:04,VALID,999.741,VALID,0,VALID,93.089,VALID,0,VALID,23.428,VALID,43,VALID,0,
2010-04-03, 02:40:04,VALID,999.76,VALID,0,VALID,93.0661,VALID,0,VALID,23.428,VALID,43,VALID,0,
2010-04-03, 02:41:04,VALID,999.714,VALID,0,VALID,92.9822,VALID,0,VALID,23.3872,VALID,43,VALID,0,
2010-04-03, 02:42:04,VALID,999.747,VALID,0,VALID,92.9364,VALID,0,VALID,23.3677,VALID,43,VALID,0,
2010-04-03, 02:43:04,VALID,999.762,VALID,0,VALID,92.9517,VALID,0,VALID,23.3695,VALID,43,VALID,0,
2010-04-03, 02:44:04,VALID,999.775,VALID,0,VALID,93.0203,VALID,0,VALID,23.3695,VALID,43,VALID,0,
2010-04-03, 02:45:04,VALID,999.76,VALID,0,VALID,93.0585,VALID,0,VALID,23.3677,VALID,43,VALID,0,
2010-04-03, 02:46:04,VALID,999.778,VALID,0,VALID,93.1195,VALID,0,VALID,23.3872,VALID,43,VALID,0,
2010-04-03, 02:47:04,VALID,999.753,VALID,0,VALID,93.1424,VALID,0,VALID,23.428,VALID,43,VALID,0,
2010-04-03, 02:48:04,VALID,999.778,VALID,0,VALID,93.1653,VALID,0,VALID,23.4263,VALID,43,VALID,0,
2010-04-03, 02:49:04,VALID,999.732,VALID,0,VALID,93.1805,VALID,0,VALID,23.4653,VALID,43,VALID,0,
2010-04-03, 02:50:04,VALID,999.728,VALID,0,VALID,93.1653,VALID,0,VALID,23.4653,VALID,43,VALID,0,
2010-04-03, 02:51:04,VALID,999.753,VALID,0,VALID,93.1805,VALID,0,VALID,23.5061,VALID,43,VALID,0,
2010-04-03, 02:52:04,VALID,999.791,VALID,0,VALID,93.1424,VALID,0,VALID,23.5061,VALID,43,VALID,0,
2010-04-03, 02:53:04,VALID,999.787,VALID,0,VALID,93.1653,VALID,0,VALID,23.5043,VALID,47,VALID,0,
2010-04-03, 02:54:04,VALID,999.776,VALID,0,VALID,93.0814,VALID,0,VALID,23.5061,VALID,78,VALID,0,
2010-04-03, 02:55:04,VALID,999.767,VALID,0,VALID,93.0051,VALID,0,VALID,23.4866,VALID,86,VALID,0,
2010-04-03, 02:56:04,VALID,999.751,VALID,0,VALID,92.9593,VALID,0,VALID,23.4475,VALID,87,VALID,0,
2010-04-03, 02:57:04,VALID,999.751,VALID,0,VALID,93.0127,VALID,0,VALID,23.428,VALID,89,VALID,0,
2010-04-03, 02:58:04,VALID,999.722,VALID,0,VALID,93.0508,VALID,0,VALID,23.4085,VALID,89,VALID,0,
2010-04-03, 02:59:04,VALID,999.748,VALID,0,VALID,93.1577,VALID,0,VALID,23.428,VALID,89,VALID,0,
2010-04-03, 03:00:04,VALID,999.718,VALID,0,VALID,93.2034,VALID,0,VALID,23.4671,VALID,89,VALID,0,
2010-04-03, 03:01:04,VALID,999.71,VALID,0,VALID,93.1882,VALID,0,VALID,23.4671,VALID,89,VALID,0,
2010-04-03, 03:02:04,VALID,999.703,VALID,0,VALID,93.1577,VALID,0,VALID,23.4653,VALID,89,VALID,0,
2010-04-03, 03:03:04,VALID,999.679,VALID,0,VALID,93.1729,VALID,0,VALID,23.4866,VALID,89,VALID,0,
2010-04-03, 03:04:04,VALID,999.706,VALID,0,VALID,93.15,VALID,0,VALID,23.4866,VALID,89,VALID,0,
2010-04-03, 03:05:04,VALID,999.687,VALID,0,VALID,93.1348,VALID,0,VALID,23.5061,VALID,89,VALID,0,
2010-04-03, 03:06:04,VALID,999.678,VALID,0,VALID,93.1653,VALID,0,VALID,23.5061,VALID,89,VALID,0,
2010-04-03, 03:07:04,VALID,999.7,VALID,0,VALID,93.1043,VALID,0,VALID,23.4866,VALID,90,VALID,0,
2010-04-03, 03:08:04,VALID,999.716,VALID,0,VALID,93.1119,VALID,0,VALID,23.4866,VALID,94,VALID,0,
2010-04-03, 03:09:04,VALID,999.781,VALID,0,VALID,93.1424,VALID,0,VALID,23.4671,VALID,95,VALID,0,
2010-04-03, 03:10:04,VALID,999.795,VALID,0,VALID,93.1729,VALID,0,VALID,23.4848,VALID,95,VALID,0,
2010-04-03, 03:11:04,VALID,999.796,VALID,0,VALID,93.2034,VALID,0,VALID,23.5256,VALID,95,VALID,0,
2010-04-03, 03:12:04,VALID,999.817,VALID,0,VALID,93.1653,VALID,0,VALID,23.5256,VALID,97,VALID,0.69375,
2010-04-03, 03:13:04,VALID,999.861,VALID,0,VALID,93.1577,VALID,0,VALID,23.5238,VALID,96,VALID,0.798437,
2010-04-03, 03:14:04,VALID,999.832,VALID,0,VALID,93.1958,VALID,0,VALID,23.5646,VALID,97,VALID,0.802734,
2010-04-03, 03:15:04,VALID,999.842,VALID,0,VALID,93.15,VALID,0,VALID,23.5646,VALID,96,VALID,0.328125,
2010-04-03, 03:16:04,VALID,999.827,VALID,0,VALID,93.089,VALID,0,VALID,23.5451,VALID,96,VALID,0,
2010-04-03, 03:17:04,VALID,999.816,VALID,0,VALID,93.0508,VALID,0,VALID,23.5061,VALID,73,VALID,0.242969,
2010-04-03, 03:18:04,VALID,999.821,VALID,0,VALID,93.0814,VALID,0,VALID,23.5256,VALID,71,VALID,0,
2010-04-03, 03:19:04,VALID,999.832,VALID,0,VALID,93.1577,VALID,0,VALID,23.5451,VALID,71,VALID,0,
2010-04-03, 03:20:04,VALID,999.784,VALID,0,VALID,93.2111,VALID,0,VALID,23.5841,VALID,58,VALID,0,
2010-04-03, 03:21:04,VALID,999.798,VALID,0,VALID,93.2187,VALID,0,VALID,23.6036,VALID,51,VALID,0,
2010-04-03, 03:22:04,VALID,999.777,VALID,0,VALID,93.1119,VALID,0,VALID,23.5823,VALID,51,VALID,0.00664063,
2010-04-03, 03:23:04,VALID,999.786,VALID,0,VALID,92.9822,VALID,0,VALID,23.5646,VALID,51,VALID,0.902734,
2010-04-03, 03:24:04,VALID,999.797,VALID,0,VALID,92.9517,VALID,0,VALID,23.5256,VALID,51,VALID,0.666016,
2010-04-03, 03:25:04,VALID,999.79,VALID,0,VALID,92.9211,VALID,0,VALID,23.4866,VALID,29,VALID,0.527344,
2010-04-03, 03:26:04,VALID,999.803,VALID,0,VALID,92.7304,VALID,0,VALID,23.389,VALID,28,VALID,0.677344,
2010-04-03, 03:27:04,VALID,999.802,VALID,0,VALID,92.822,VALID,0,VALID,23.3695,VALID,28,VALID,0.149609,
2010-04-03, 03:28:04,VALID,999.825,VALID,0,VALID,92.9822,VALID,0,VALID,23.389,VALID,28,VALID,0,
2010-04-03, 03:29:04,VALID,999.821,VALID,0,VALID,92.944,VALID,0,VALID,23.3695,VALID,27,VALID,0,
2010-04-03, 03:30:04,VALID,999.859,VALID,0,VALID,93.0356,VALID,0,VALID,23.3677,VALID,27,VALID,0,
2010-04-03, 03:31:04,VALID,999.861,VALID,0,VALID,93.0356,VALID,0,VALID,23.389,VALID,27,VALID,0,
2010-04-03, 03:32:04,VALID,999.862,VALID,0,VALID,93.089,VALID,0,VALID,23.389,VALID,27,VALID,0,
2010-04-03, 03:33:04,VALID,999.884,VALID,0,VALID,92.9974,VALID,0,VALID,23.4085,VALID,27,VALID,0,
2010-04-03, 03:34:04,VALID,999.902,VALID,0,VALID,93.028,VALID,0,VALID,23.3677,VALID,27,VALID,0,
2010-04-03, 03:35:04,VALID,999.914,VALID,0,VALID,93.0814,VALID,0,VALID,23.4085,VALID,27,VALID,0,
2010-04-03, 03:36:04,VALID,999.89,VALID,0,VALID,93.0051,VALID,0,VALID,23.389,VALID,27,VALID,0,
2010-04-03, 03:37:04,VALID,999.898,VALID,0,VALID,92.9135,VALID,0,VALID,23.35,VALID,27,VALID,0,
2010-04-03, 03:38:04,VALID,999.92,VALID,0,VALID,92.8372,VALID,0,VALID,23.2897,VALID,27,VALID,0,
2010-04-03, 03:39:04,VALID,999.91,VALID,0,VALID,92.9135,VALID,0,VALID,23.2719,VALID,27,VALID,0,
2010-04-03, 03:40:04,VALID,999.906,VALID,0,VALID,93.0051,VALID,0,VALID,23.2915,VALID,27,VALID,0,
2010-04-03, 03:41:04,VALID,999.902,VALID,0,VALID,93.1043,VALID,0,VALID,23.311,VALID,27,VALID,0,
2010-04-03, 03:42:04,VALID,999.897,VALID,0,VALID,93.15,VALID,0,VALID,23.35,VALID,27,VALID,0,
2010-04-03, 03:43:04,VALID,999.902,VALID,0,VALID,93.089,VALID,0,VALID,23.3287,VALID,27,VALID,0,
2010-04-03, 03:44:04,VALID,999.883,VALID,0,VALID,93.0508,VALID,0,VALID,23.3287,VALID,27,VALID,0,
2010-04-03, 03:45:04,VALID,999.878,VALID,0,VALID,93.0966,VALID,0,VALID,23.3695,VALID,27,VALID,0,
2010-04-03, 03:46:04,VALID,999.873,VALID,0,VALID,93.0127,VALID,0,VALID,23.3287,VALID,27,VALID,0,
2010-04-03, 03:47:04,VALID,999.857,VALID,0,VALID,93.0127,VALID,0,VALID,23.3305,VALID,27,VALID,0,
2010-04-03, 03:48:04,VALID,999.839,VALID,0,VALID,93.028,VALID,0,VALID,23.3305,VALID,27,VALID,0,
2010-04-03, 03:49:04,VALID,999.872,VALID,0,VALID,92.944,VALID,0,VALID,23.2719,VALID,27,VALID,0,
2010-04-03, 03:50:04,VALID,999.851,VALID,0,VALID,93.028,VALID,0,VALID,23.2702,VALID,27,VALID,0,
2010-04-03, 03:51:04,VALID,999.852,VALID,0,VALID,92.9211,VALID,0,VALID,23.2719,VALID,27,VALID,0,
2010-04-03, 03:52:04,VALID,999.856,VALID,0,VALID,93.0051,VALID,0,VALID,23.2312,VALID,27,VALID,0,
2010-04-03, 03:53:04,VALID,999.866,VALID,0,VALID,93.0432,VALID,0,VALID,23.2329,VALID,27,VALID,0,
2010-04-03, 03:54:04,VALID,999.851,VALID,0,VALID,93.0203,VALID,0,VALID,23.1921,VALID,27,VALID,0,